Flag for U.S.A. Weather past 2 weeks in Arlington, Texas, U.S.A.

Now
72 °F

Overcast.


Feels Like: 72 °F
Forecast: 68 / 76 °F
Wind: 10 mph from Southeast

Location: Arlington Municipal Airport

Current Time: May 23, 2015 at 3:50:34 AM

Latest Report: May 23, 2015 at 2:53 AM


Visibility: 10 mi

Pressure: 30.06 "Hg

Humidity: 81%

Dew point: 66 °F

Location of ArlingtonLocation

Historic Weather in Arlington — Graph

°F

Arlington temperature yesterday

Maximum temperature yesterday: 73 °F (at 4:53 PM)
Minimum temperature yesterday: 61 °F (at 10:53 AM)
Average temperature yesterday: 67 °F

Past Weeks' High & Low Weather Summary

 TemperatureHumidityPressure
High89 °F (May 18, 3:53 PM)93% (May 18, 7:01 AM)30.27 "Hg (May 18, 7:01 AM)
Low58 °F (May 21, 6:53 AM)41% (May 12, 10:53 AM)29.70 "Hg (May 16, 6:53 PM)
Average73 °F74%29.98 "Hg
* Reported May 8 2:53 AM — May 23 2:53 AM, Arlington, Weather by CustomWeather, © 2015

Note: Actual official high and low records may vary slightly from our data, if they occured in-between our weather recording intervals... More about our weather records

Advertising

Arlington weather history for previous 24 hours

 ConditionsComfort  
Time TempWeatherWind HumidityBarometerVisibility
2:53 AM
Sat, May 23
72 °FOvercast.10 mph81%30.06 "Hg10 mi
1:53 AM72 °FMostly cloudy.8 mph81%30.06 "Hg10 mi
12:53 AM73 °FOvercast.10 mph79%30.06 "Hg10 mi
12:02 AM72 °FMostly cloudy.10 mph81%30.09 "Hg10 mi
10:53 PM
Fri, May 22
72 °FLight rain. Overcast.5 mph84%30.09 "Hg10 mi
9:53 PM71 °FLight rain. Overcast.3 mph84%30.08 "Hg6 mi
8:53 PM73 °FOvercast.3 mph76%30.06 "Hg10 mi
7:53 PM73 °FOvercast.5 mph74%30.06 "Hg10 mi
6:53 PM73 °FOvercast.9 mph71%30.05 "Hg10 mi
5:53 PM73 °FOvercast.6 mph74%30.07 "Hg10 mi
4:53 PM73 °FOvercast.8 mph71%30.08 "Hg10 mi
3:53 PM72 °FMostly cloudy.6 mph68%30.09 "Hg10 mi
2:53 PM69 °FOvercast.5 mph68%30.11 "Hg10 mi
1:53 PM67 °FOvercast.8 mph71%30.11 "Hg10 mi
12:53 PM64 °FOvercast.7 mph73%30.12 "Hg10 mi
11:53 AM62 °FOvercast.9 mph75%30.14 "Hg10 mi
10:53 AM61 °FLow clouds.13 mph75%30.14 "Hg10 mi
9:53 AM62 °FLow clouds.13 mph83%30.14 "Hg10 mi
8:53 AM62 °FLow clouds.9 mph83%30.15 "Hg10 mi
7:53 AM62 °FOvercast.10 mph80%30.14 "Hg10 mi
6:53 AM62 °FOvercast.9 mph83%30.14 "Hg8 mi
5:53 AM63 °FLow clouds.9 mph81%30.12 "Hg10 mi
4:53 AM62 °FLow clouds.10 mph86%30.11 "Hg8 mi
3:53 AM63 °FLow clouds.9 mph84%30.11 "Hg10 mi
Weather by CustomWeather, © 2015

See weather overviewHow to use our weather pages